User: anonymous   Login
Location: Unspecified
(0.0000°N, 0.0000°E)
Time: 06:25:30
(UTC+00:00)
Language:

FLTSATCOM F7 - Orbit

View from above orbital plane
View from above orbital plane
View from above satellite
View from above satellite

Ground track
Ground track

The orbit data is extracted from the following two-line orbital elements,

1 17181U 86096A   20055.36818897 -.00000018  00000-0  00000+0 0  9998
2 17181  14.4703 356.8719 0041963 283.0602 268.8478  0.98926554129117
Epoch (UTC): 24 February 2020 08:50:11
Eccentricity: 0.0041963
inclination: 14.4703°
perigee height: 35989 km
apogee height: 36346 km
right ascension of ascending node: 356.8719°
argument of perigee: 283.0602°
revolutions per day: 0.98926554
mean anomaly at epoch: 268.8478°
orbit number at epoch: 12911

The dashed part of the orbit path shows where the satellite is in the earth's shadow,  

DLR